Amarillo, TX

1:27 AM CDT on May 27, 2018 (GMT -0500)
Amarillo International

Weather History for KAMA - April, 2014

Change the Weather History Date:

Tuesday, April 1, 2014

  Actual Average Record
Temperature  
Mean Temperature 54 °F 52 °F  
Max Temperature 76 °F 67 °F 92 °F (1946)
Min Temperature 31 °F 37 °F 20 °F (1948)
Degree Days  
Heating Degree Days 11 13  
Month to date heating degree days 11 13  
Since 1 July heating degree days 3923 3822  
Cooling Degree Days 0 0  
Month to date cooling degree days 0 0  
Year to date cooling degree days 0 2  
Growing Degree Days 2 (Base 50)    
Moisture  
Dew Point 24 °F    
Average Humidity 38    
Maximum Humidity 63    
Minimum Humidity 13    
Precipitation  
Precipitation 0.00 in 0.05 in 1.09 in (1905)
Month to date precipitation 0.00 0.05  
Year to date precipitation 0.59 2.72  
Snow  
Snow 0.00 in 0.10 in 4.20 in (1988)
Month to date snowfall 0.0 0.1  
Since 1 July snowfall 12.4 17.0  
Snow Depth 0.00 in    
Sea Level Pressure  
Sea Level Pressure 29.85 in    
Wind  
Wind Speed 15 mph (East)    
Max Wind Speed 29 mph    
Max Gust Speed 34 mph    
Visibility 10 miles    
Events      
T = Trace of Precipitation, MM = Missing Value Source: NWS Daily Summary

Daily Weather History Graph

Daily Weather History Graph

Search for Another Location

Airport or City:

Astronomy

Apr. 01, 2014 Rise Set
Actual Time 7:33 AM CDT 8:08 PM CDT
Civil Twilight 7:07 AM CDT 8:33 PM CDT
Nautical Twilight 6:37 AM CDT 9:04 PM CDT
Astronomical Twilight 6:07 AM CDT 9:34 PM CDT
Moon 8:41 AM CDT (4/1) 10:27 PM CDT (4/1)
Length of Visible Light 13h 25m
Length of Day
12h 34m
Waxing Crescent, 5% of the Moon is Illuminated
Apr 1
Waxing Crescent
Apr 7
First Quarter
Apr 15
Full
Apr 22
Last Quarter
Apr 29
New

Hourly Weather History & Observations

Time (CDT) Temp. Windchill Dew Point Humidity Pressure Visibility Wind Dir Wind Speed Gust Speed Precip Events Conditions
12:53 AM 51.1 °F - 15.1 °F 24% 29.89 in 10.0 mi NE 19.6 mph 31.1 mph N/A   Clear
1:53 AM 48.0 °F - 21.9 °F 36% 29.91 in 10.0 mi ENE 17.3 mph 26.5 mph N/A   Clear
2:53 AM 44.1 °F 38.1 °F 21.9 °F 42% 29.92 in 10.0 mi ENE 11.5 mph - N/A   Clear
3:53 AM 41.0 °F 35.2 °F 21.0 °F 45% 29.92 in 10.0 mi NE 9.2 mph - N/A   Clear
4:53 AM 39.0 °F 32.3 °F 19.9 °F 46% 29.91 in 10.0 mi NE 10.4 mph - N/A   Clear
5:53 AM 35.6 °F 29.2 °F 19.4 °F 52% 30.00 in 10.0 mi NE 8.1 mph - N/A   Clear
6:53 AM 33.1 °F 26.1 °F 19.0 °F 56% 29.96 in 10.0 mi North 8.1 mph - N/A   Clear
7:53 AM 30.9 °F 23.5 °F 19.0 °F 61% 29.98 in 10.0 mi North 8.1 mph - N/A   Clear
8:53 AM 37.9 °F 31.5 °F 21.9 °F 53% 29.98 in 10.0 mi NNE 9.2 mph - N/A   Clear
9:53 AM 41.0 °F 34.3 °F 23.0 °F 49% 29.96 in 10.0 mi ENE 11.5 mph - N/A   Clear
10:53 AM 45.0 °F 38.5 °F 25.0 °F 46% 29.95 in 10.0 mi East 13.8 mph - N/A   Clear
11:53 AM 48.9 °F - 26.1 °F 41% 29.93 in 10.0 mi East 8.1 mph - N/A   Clear
12:53 PM 53.1 °F - 26.1 °F 35% 29.91 in 10.0 mi North - - N/A   Clear
1:53 PM 60.1 °F - 25.0 °F 26% 29.86 in 10.0 mi South 12.7 mph - N/A   Clear
2:53 PM 66.0 °F - 24.1 °F 20% 29.81 in 10.0 mi SSW 12.7 mph 18.4 mph N/A   Clear
3:53 PM 68.0 °F - 24.1 °F 19% 29.77 in 10.0 mi South 13.8 mph 23.0 mph N/A   Clear
4:53 PM 73.0 °F - 23.0 °F 15% 29.72 in 10.0 mi South 24.2 mph 28.8 mph N/A   Clear
5:53 PM 75.0 °F - 21.9 °F 14% 29.69 in 10.0 mi South 20.7 mph - N/A   Clear
6:53 PM 68.0 °F - 27.0 °F 21% 29.72 in 10.0 mi SE 24.2 mph 31.1 mph N/A   Clear
7:53 PM 63.0 °F - 28.9 °F 28% 29.73 in 10.0 mi SE 21.9 mph - N/A   Clear
8:53 PM 60.1 °F - 30.9 °F 33% 29.72 in 10.0 mi SE 18.4 mph - N/A   Clear
9:53 PM 55.0 °F - 30.9 °F 40% 29.74 in 10.0 mi ESE 15.0 mph - N/A   Clear
10:53 PM 55.9 °F - 34.0 °F 44% 29.73 in 10.0 mi SE 17.3 mph - N/A   Clear
11:53 PM 57.0 °F - 36.0 °F 45% 29.71 in 10.0 mi SE 20.7 mph - N/A   Clear